EHI
0 1 1 1 0 0 0 0 0 0 0 0 0 0 0 0 0 0 0 0 0 0 0 0 0 0 0 0 0 0 0 0 0 0 0 0 0 0
0 0 0 0 0 0 0 0 0 0 0 0 0 0 0 0 0 0 0 0 0 0 0 0 0 0 0 0 0 0 0 0 0 0 0 0 0 0
0 0 0 0 0 0 0 0 0 0 0 0 0 0 0 0 0 0 0 0 0 0 0 0 0 0 0 0 0 0 0 0 0 0 0 0 0 0
0 0 0 0 0 0 0 0 0 0 0 0 0 0 0 0 0 0 0 0 0 0 0 0 0 0 0 0 0 0 0 0 0 0 0 0 0 0
0 0 0 0 0 0 0 0 0 0 0 0 0 0 0 0 0 0 0 0 0 0 0 0 0 0 0 0 0 0 0 0 0 0 0 0 0 0
0 0 0 0 0 0 0 0 0 0 0 0 0 0 0 0 0 0 0 0 0 0 0 0 0 0 0 0 0 0 0 0 0 0 0 0 0 0
0 0 0 0 0 0 0 0 0 0 0 0 0 0 0 0 0 0 0 0 0 0 0 0 0 0 0 0 0 0 0 0 0 0 0 0 0 0
0 0 0 0 0 0 0 0 0 0 0 0 0 0 0 0 0 0 0 0 0 0 0 0 0 0 0 0 0 0 0 0 0 0 0 0 0 0
0 0 0 0 0 0 0 0 0 0 0 0 0 0 0 0 0 0 0 0 0 0 0 0 0 0 0 0 0 0 0 0 0 0 0 0 0 0
0 0 0 0 0 0 0 0 0 0 0 0 0 0 0 0 0 0 0 0 0 0 0 0 0 0 0 0 0 0 0 0 0 0 0 0 0 0
0 0 0 0 0 0 0 0 0 0 0 0 0 0 0 0 0 0 0 0 0 0 0 0 0 0 0 0 0 0 0 0 0 0 0 0 0 0
0 0 0 0 0 0 0 0 0 0 0 0 0 0 0 0 0 0 0 0 0 0 0 0 0 0 0 0 0 0 0 0 0 0 0 0 0 0
0 0 0 0 0 0 0 0 0 0 0 0 0 0 0 0 0 0 0 0 0 0 0 0 0 0 0 0 0 0 0 0 0 0 0 0 0 0
0 0 0 0 0 0 0 0 0 0 0 0 0 0 0 0 0 0 0 0 0 0 0 0 0 0 0 0 0 0 0 0 0 0 0 0 0 0
0 0 0 0 0 0 0 0 0 0 0 0 0 0 0 0 0 0 0 0 0 0 0 0 0 0 0 0 0 0 0 0 0 0 0 0 0 0
0 0 0 0 0 0 0 0 0 0 0 0 0 0 0 0 0 0 0 0 0 0 0 0 0 0 0 0 0 0 0 0 0 0 0 0 0 0
0 0 0 0 0 0 0 0 0 0 0 0 0 0 0 0 0 0 0 0 0 0 0 0 0 0 0 0 0 0 0 0 0 0 0 0 0 0
0 0 0 0 0 0 0 0 0 0 0 0 0 0 0 0 0 0 0 0 0 0 0 0 0 0 0 0 0 0 0 0 0 0 0 0 0 0
0 0 0 0 0 0 0 0 0 0 0 0 0 0 0 0 0 0 0 0 0 0 0 0 0 0 0 0 0 0 0 0 0 0 0 0 0 0
0 0 0 0 0 0 0 0 0 0 0 0 0 0 0 0 0 0 0 0 0 0 0 0 0 0 0 0 0 0 0 0 0 0 0 0 0 0
0 0 0 0 0 0 0 0 0 0 0 0 0 0 0 0 0 0 0 0 0 0 0 0 0 0 0 0 0 0 0 0 0 0 0 0 0 0
0 0 0 0 0 0 0 0 0 0 0 0 0 0 0 0 0 0 0 0 0 0 0 0 0 0 0 0 0 0 0 0 0 0 0 0 0 0
0 0 0 0 0 0 0 0 0 0 0 0 0 0 0 0 0 0 0 0 0 0 0 0 0 0 0 0 0 0 0 0 0 0 0 0 0 0
Wind_Speed
7 7 5 4 5 5 4 4 4 4 3 2 2 3 3 4 5 5 6 10 11 10 10 10 10 10 10 10 10 10 9 7 5 3 2 2 4 7
4 5 4 3 4 3 3 3 3 3 3 2 3 3 4 5 7 7 8 12 12 11 10 10 10 10 10 10 10 10 9 7 6 5 4 3 4 6
2 3 3 3 3 3 3 3 3 5 6 4 3 3 4 6 6 6 7 7 8 12 12 11 11 11 11 11 10 9 8 7 6 6 6 6 7 8
2 2 3 3 3 3 4 5 6 6 7 7 4 4 5 5 6 7 6 7 7 12 12 12 12 12 12 12 11 10 9 8 8 7 8 8 9 11
5 5 4 5 5 5 7 7 7 7 6 8 5 3 5 5 6 7 8 6 6 8 10 11 11 12 12 11 11 11 10 9 8 7 7 8 10 11
8 7 6 6 7 8 8 8 8 8 8 8 6 5 4 4 5 5 6 6 6 6 6 6 8 10 11 11 11 11 9 9 8 8 8 9 9 11
9 8 8 10 10 7 8 7 8 8 7 8 7 5 4 4 4 2 4 3 5 5 4 4 4 5 5 7 9 10 9 9 9 9 9 10 11 12
8 7 9 11 14 15 14 11 9 9 9 7 6 7 4 4 3 3 3 4 4 5 4 4 4 4 4 5 8 9 10 10 10 10 10 11 12 12
5 6 7 8 9 10 14 15 13 12 10 8 9 6 4 2 4 5 5 5 4 4 3 4 4 4 4 4 9 10 11 11 11 11 11 12 12 13
5 5 7 6 6 9 11 11 9 8 7 7 7 5 4 3 3 4 4 4 3 4 4 4 4 3 3 4 8 11 12 12 12 12 12 13 13 14
5 5 6 7 8 12 12 11 10 8 10 12 11 10 10 8 4 4 4 5 4 4 5 3 3 3 3 3 5 10 12 12 14 13 14 14 15 14
5 6 7 8 9 10 10 11 10 6 7 8 9 10 9 10 10 6 4 4 3 3 5 3 4 3 3 3 4 6 8 10 13 13 14 16 16 10
5 4 4 9 11 11 9 8 9 8 7 8 7 7 7 7 7 6 5 4 4 3 3 2 3 3 3 3 4 5 7 7 9 9 11 15 16 13
5 4 5 11 12 12 10 11 12 9 7 7 7 6 5 5 5 6 7 6 6 5 4 2 3 3 3 4 4 6 6 7 9 9 9 11 13 15
5 8 10 12 12 10 12 12 8 6 6 7 6 4 3 3 3 4 5 5 6 7 7 5 4 3 3 4 4 5 6 6 9 9 8 9 10 11
7 9 12 12 9 9 8 7 5 5 6 6 4 3 3 4 4 3 4 4 5 6 7 8 6 5 4 4 4 5 6 7 9 9 8 8 9 9
9 5 5 5 5 5 5 5 5 5 5 4 4 4 4 5 4 3 3 4 4 4 5 5 5 3 4 4 5 6 6 6 7 8 7 8 9 9
10 7 6 6 6 6 5 4 4 4 4 4 4 4 4 5 4 3 3 4 4 3 4 4 5 3 3 3 4 6 6 6 7 8 7 7 9 9
8 7 7 7 6 6 5 5 4 4 3 4 5 4 4 4 4 4 3 3 3 3 3 3 4 3 4 5 5 5 6 6 7 8 7 6 7 8
7 9 8 7 6 6 6 5 5 5 4 4 4 4 4 4 3 3 3 3 3 2 3 3 3 3 3 3 4 5 6 6 6 7 7 5 5 6
8 8 8 7 7 7 6 6 6 6 5 4 4 4 4 3 3 3 3 3 2 2 3 3 3 4 2 1 2 4 5 5 5 5 7 7 7 8
9 8 8 7 7 7 7 7 6 6 6 5 4 4 4 3 4 4 3 3 2 1 2 2 3 2 2 3 4 5 6 6 5 4 6 7 6 7
9 8 8 8 7 7 7 8 9 7 6 6 5 5 4 4 3 3 3 3 2 2 1 1 2 2 2 2 3 4 6 6 5 5 5 8 7 6
Wind_Direction
229 220 216 214 209 207 199 188 186 184 168 129 91 41 53 59 55 67 66 68 72 75 79 80 78 75 74 73 75 75 74 73 70 60 29 315 280 262
217 205 205 202 193 192 184 181 182 157 125 83 74 52 62 77 67 72 72 68 65 73 76 80 80 79 77 74 71 69 66 60 52 39 12 338 313 294
188 183 183 171 167 163 142 130 115 112 113 87 56 49 61 74 68 71 72 70 68 68 74 76 77 76 73 71 67 63 58 49 35 14 351 332 316 301
98 122 112 118 112 111 110 109 104 102 115 110 76 57 63 67 72 68 65 69 69 66 70 72 73 72 69 66 62 56 48 38 25 9 351 335 320 307
58 70 80 93 91 94 98 101 102 102 99 108 96 68 65 56 67 65 61 55 60 62 64 64 67 70 69 65 59 52 43 32 19 3 348 335 323 312
53 55 62 78 95 103 101 103 106 103 100 102 97 80 66 50 67 70 67 53 47 39 47 51 57 63 62 58 51 43 34 22 8 355 342 329 317 307
56 56 70 86 86 95 109 111 112 108 103 100 95 85 68 60 61 55 77 69 56 30 30 37 38 48 49 45 40 30 21 10 359 348 337 326 317 309
74 69 76 81 84 83 85 87 100 113 112 103 96 92 81 72 70 67 67 61 47 11 18 29 28 40 34 33 21 17 11 3 356 347 338 329 320 313
77 82 88 86 90 93 82 76 73 80 97 110 104 100 94 90 96 85 74 72 60 356 4 32 20 34 25 24 17 16 9 2 355 348 340 332 323 315
72 91 103 94 100 105 97 85 75 67 76 88 98 95 93 95 93 98 98 89 67 32 16 34 8 6 352 9 15 12 7 2 355 349 342 336 328 319
65 71 99 101 112 113 106 101 91 79 75 81 82 78 74 71 96 102 88 79 57 28 16 26 4 349 346 358 1 5 0 357 353 350 347 342 336 326
74 62 73 99 112 118 119 118 111 106 104 88 70 58 59 55 53 65 90 92 76 39 12 13 11 7 12 351 346 359 2 354 349 348 348 348 346 340
104 85 77 97 101 103 106 113 126 123 107 96 85 72 63 57 54 55 57 75 80 56 3 3 27 30 23 339 335 345 356 357 353 351 353 352 351 352
123 113 101 100 99 100 100 112 114 109 103 95 87 75 66 59 55 59 63 65 67 63 19 28 52 36 33 24 358 340 342 356 357 354 356 359 3 360
127 126 114 103 95 93 99 103 103 104 103 100 94 79 62 47 61 67 57 63 65 54 44 37 53 58 51 34 6 350 339 346 356 355 358 9 10 7
118 112 100 91 88 88 85 81 82 93 106 106 98 85 78 76 62 58 57 50 55 40 35 38 36 48 48 32 20 10 0 353 354 356 356 11 17 17
132 115 109 109 104 97 91 86 89 97 96 99 105 102 91 83 71 59 64 64 61 38 16 9 19 49 57 34 21 13 5 5 1 357 1 16 20 17
135 139 141 143 142 138 129 113 105 107 109 116 114 111 107 102 95 82 76 75 69 46 25 4 358 27 56 69 36 5 5 3 358 3 9 13 18 13
141 155 158 162 159 154 149 141 137 131 128 129 125 123 119 114 110 104 97 85 72 53 33 17 16 24 28 23 21 24 360 351 358 10 13 10 7 0
162 166 169 171 169 166 163 153 143 141 140 139 134 134 133 129 123 118 111 101 83 56 41 35 27 16 8 357 339 346 5 357 353 360 2 2 4 349
173 173 175 175 177 174 170 164 160 160 157 154 151 149 148 140 133 131 124 114 98 69 45 25 351 326 278 297 360 10 11 13 5 353 349 357 5 11
176 176 179 180 178 176 172 169 167 169 168 170 168 163 160 157 153 153 153 147 132 101 59 28 4 19 45 33 21 3 358 1 5 15 31 22 6 9
177 177 177 179 178 174 173 175 177 182 183 184 180 176 171 166 164 164 167 168 161 153 114 54 39 42 39 19 7 3 3 2 357 1 18 14 17 23